Cosmos 2263 Rocket - Orbit

View from above orbital plane
View from above orbital plane
View from above satellite
View from above satellite

Ground track
Ground track

The orbit data is extracted from the following two-line orbital elements,

1 22803U 93059B   13168.85230320 -.00000267  00000-0 -10971-3 0   295
2 22803 070.9916 086.3742 0015004 087.9325 272.3516 14.16622261 21463
Epoch (UTC): 17 June 2013 20:27:18
Eccentricity: 0.0015004
inclination: 70.9916°
perigee height: 826 km
apogee height: 847 km
right ascension of ascending node: 86.3742°
argument of perigee: 87.9325°
revolutions per day: 14.16622261
mean anomaly at epoch: 272.3516°
orbit number at epoch: 2146

The dashed part of the orbit path shows where the satellite is in the earth's shadow,  

Developed and maintained by Chris Peat, Heavens-Above GmbH. Please read the updated FAQ before sending e-mail. Imprint. DLR